Home   Weather   Tashkent   Past weeks
Flag for Uzbekistan

Past Weather in Tashkent, Uzbekistan — Yesterday and Last 2 Weeks

Now
63 °F

Sprinkles. Partly sunny.


Feels Like: 63 °F
Forecast: 73 / 54 °F
Wind: 7 mph from Southwest

Location: Tashkent

Current Time: May 24, 2019 at 5:05:56 pm

Latest Report: May 24, 2019 at 4:30 pm


Visibility: N/A

Pressure: 29.98 "Hg

Humidity: 52%

Dew Point: 45 °F

Location of TashkentLocation

Past Weather in Tashkent — Graph

°F

Tashkent Temperature Yesterday

Maximum temperature yesterday: 81 °F (at 3:30 pm)
Minimum temperature yesterday: 55 °F (at 4:00 am)
Average temperature yesterday: 67 °F

High & Low Weather Summary for the Past Weeks

 TemperatureHumidityPressure
High91 °F (May 10, 4:00 pm)83% (May 19, 4:30 am)30.04 "Hg (May 19, 4:30 am)
Low55 °F (May 23, 4:00 am)14% (May 16, 3:00 pm)29.77 "Hg (May 16, 2:30 pm)
Average75 °F42%29.89 "Hg
* Reported May 9 3:00 pm — May 24 3:30 pm, Tashkent. Weather by CustomWeather, © 2019

Note: Actual official high and low records may vary slightly from our data, if they occured in-between our weather recording intervals... More about our weather records

Advertising

Tashkent Weather History for the Previous 24 Hours

Scroll right to see more
 ConditionsComfort  
Time TempWeatherWind HumidityBarometerVisibility
3:30 pm
Fri, May 24
64 °FSprinkles. Partly sunny.7 mph46%29.98 "HgN/A
3:00 pm64 °FPartly sunny.5 mph46%29.98 "HgN/A
2:30 pm64 °FPartly sunny.2 mph46%29.95 "HgN/A
2:00 pm64 °FSprinkles. Partly sunny.5 mph46%29.95 "HgN/A
1:30 pm64 °FSprinkles. Partly sunny.7 mph46%29.95 "HgN/A
1:00 pm64 °FSprinkles. Partly sunny.7 mph46%29.95 "HgN/A
12:30 pm64 °FPartly sunny.7 mph43%29.95 "HgN/A
12:00 pm64 °FPartly sunny.5 mph52%29.92 "HgN/A
11:30 am64 °FPartly sunny.7 mph46%29.92 "HgN/A
11:00 am64 °FPartly sunny.9 mph46%29.92 "HgN/A
10:30 am64 °FScattered clouds.9 mph56%29.92 "HgN/A
10:00 am64 °FScattered clouds.9 mph56%29.89 "HgN/A
9:30 am64 °FScattered clouds.12 mph60%29.89 "HgN/A
9:00 am64 °FScattered clouds.12 mph60%29.89 "HgN/A
8:30 am64 °FScattered clouds.12 mph56%29.89 "HgN/A
8:00 am64 °FScattered clouds.12 mph56%29.86 "HgN/A
7:30 am63 °FPassing clouds.12 mph59%29.86 "HgN/A
7:00 am63 °FPassing clouds.7 mph59%29.86 "HgN/A
6:30 am63 °FSunny.7 mph59%29.86 "Hg10 mi
6:00 am61 °FSunny.5 mph59%29.86 "Hg10 mi
5:30 am61 °FSunny.7 mph59%29.83 "Hg10 mi
5:00 am61 °FSunny.7 mph55%29.83 "Hg10 mi
4:30 am61 °FClear.5 mph52%29.83 "Hg10 mi
4:00 am61 °FPassing clouds.5 mph52%29.83 "HgN/A
3:30 am63 °FClear.7 mph49%29.83 "Hg10 mi
3:00 am63 °FPassing clouds.7 mph49%29.83 "HgN/A
2:30 am63 °FClear.5 mph49%29.83 "Hg10 mi
2:00 am63 °FClear.7 mph49%29.83 "Hg10 mi
1:30 am63 °FClear.5 mph45%29.86 "Hg10 mi
1:00 am63 °FClear.7 mph45%29.86 "Hg10 mi
12:30 am63 °FClear.7 mph45%29.86 "Hg10 mi
12:00 am63 °FClear.7 mph49%29.86 "Hg10 mi
11:30 pm
Thu, May 23
63 °FClear.7 mph52%29.89 "Hg10 mi
11:00 pm64 °FClear.9 mph49%29.89 "Hg10 mi
10:30 pm64 °FClear.9 mph49%29.89 "Hg10 mi
10:00 pm66 °FClear.7 mph46%29.89 "Hg10 mi
9:30 pm68 °FClear.9 mph46%29.89 "Hg10 mi
9:00 pm68 °FClear.7 mph46%29.89 "Hg10 mi
8:30 pm72 °FClear.5 mph38%29.89 "Hg10 mi
8:00 pm72 °FPassing clouds.7 mph38%29.89 "HgN/A
7:30 pm73 °FPassing clouds.7 mph36%29.89 "HgN/A
6:30 pm75 °FSunny.12 mph34%29.86 "Hg10 mi
6:00 pm77 °FPassing clouds.12 mph30%29.86 "HgN/A
5:30 pm79 °FSunny.9 mph28%29.86 "Hg10 mi
5:00 pm79 °FPassing clouds.9 mph26%29.86 "HgN/A
Weather by CustomWeather, © 2019

See weather overview